TimePDT,TemperatureF,Dew PointF,Humidity,Sea Level PressureIn,VisibilityMPH,Wind Direction,Wind SpeedMPH,Gust SpeedMPH,PrecipitationIn,Events,Conditions,WindDirDegrees,DateUTC
12:56 AM,48.0,41.0,77,30.09,10.0,WNW,6.9,-,N/A,,Partly Cloudy,290,2013-03-18 07:56:00
1:56 AM,46.9,41.0,80,30.10,10.0,WNW,4.6,-,N/A,,Partly Cloudy,290,2013-03-18 08:56:00
2:56 AM,46.0,39.0,76,30.09,10.0,Calm,Calm,-,N/A,,Partly Cloudy,0,2013-03-18 09:56:00
3:56 AM,46.9,41.0,80,30.07,10.0,West,3.5,-,N/A,,Partly Cloudy,280,2013-03-18 10:56:00
4:56 AM,45.0,39.0,80,30.06,10.0,West,5.8,-,N/A,,Clear,280,2013-03-18 11:56:00
5:56 AM,46.0,41.0,83,30.07,10.0,WNW,8.1,-,N/A,,Partly Cloudy,290,2013-03-18 12:56:00
6:56 AM,46.9,41.0,80,30.09,10.0,Calm,Calm,-,N/A,,Scattered Clouds,0,2013-03-18 13:56:00
7:56 AM,48.0,42.1,80,30.11,10.0,NW,3.5,-,N/A,,Mostly Cloudy,310,2013-03-18 14:56:00
8:56 AM,51.1,43.0,74,30.12,10.0,Calm,Calm,-,N/A,,Mostly Cloudy,0,2013-03-18 15:56:00
9:56 AM,52.0,43.0,71,30.13,10.0,Calm,Calm,-,N/A,,Mostly Cloudy,0,2013-03-18 16:56:00
10:56 AM,53.1,44.1,71,30.12,10.0,Calm,Calm,-,N/A,,Mostly Cloudy,0,2013-03-18 17:56:00
11:56 AM,59.0,44.1,58,30.12,10.0,WNW,9.2,-,N/A,,Mostly Cloudy,300,2013-03-18 18:56:00
12:56 PM,57.0,46.0,67,30.11,10.0,NE,5.8,-,N/A,,Mostly Cloudy,40,2013-03-18 19:56:00
1:56 PM,57.0,46.0,67,30.08,10.0,NE,4.6,-,N/A,,Mostly Cloudy,50,2013-03-18 20:56:00
2:56 PM,59.0,44.1,58,30.07,10.0,WNW,9.2,-,N/A,,Overcast,290,2013-03-18 21:56:00
3:56 PM,60.1,44.1,55,30.06,10.0,WNW,11.5,-,N/A,,Mostly Cloudy,290,2013-03-18 22:56:00
4:56 PM,57.0,45.0,64,30.05,10.0,WNW,11.5,-,N/A,,Overcast,290,2013-03-18 23:56:00
5:56 PM,57.0,44.1,62,30.06,10.0,WNW,12.7,-,N/A,,Overcast,290,2013-03-19 00:56:00
6:56 PM,54.0,44.1,69,30.07,10.0,NW,12.7,-,N/A,,Overcast,310,2013-03-19 01:56:00
7:56 PM,52.0,43.0,71,30.12,10.0,West,21.9,-,N/A,,Overcast,260,2013-03-19 02:56:00
8:56 PM,52.0,44.1,74,30.11,10.0,WSW,10.4,-,N/A,,Overcast,250,2013-03-19 03:56:00
9:56 PM,51.1,43.0,74,30.12,10.0,West,5.8,-,N/A,,Overcast,280,2013-03-19 04:56:00
10:56 PM,52.0,44.1,74,30.15,10.0,West,15.0,-,N/A,,Overcast,260,2013-03-19 05:56:00
11:56 PM,50.0,42.1,74,30.12,10.0,West,5.8,-,N/A,,Mostly Cloudy,280,2013-03-19 06:56:00